[[{"header":{"parameterUnit":"m.s-1","parameterCategory":1,"la1":30.2991,"la2":30.254,"lo1":-89.0895,"lo2":-89.0444,"dy":0.0017,"dx":0.0017,"nx":28,"ny":28,"refTime":"2024-10-17T03:00:00:Z","depth":0,"parameterNumber":2,"parameterNumberName":"U-component_of_WINDS"},"data":[0,0,0,0,0,0,0,0,0,0,0,0,0,0,0,0,0,0,0,0,0,0,0,0,0,0,0,0,0,0,0,0,0,0,0,0,0,0,0,0,0,0,0,0,0,0,0,0,0,0,0,0,0,0,0,0,0,0,-4.5832,-4.5833,0,-4.589,-4.5891,-4.5891,-4.5696,-4.569,-4.5684,-4.5679,-4.574,-4.5746,-4.5753,0,0,0,0,0,0,0,0,0,0,0,0,0,-4.5553,-4.5559,-4.5832,-4.5833,-4.5833,-4.589,-4.5891,-4.5891,-4.5697,-4.569,-4.5683,-4.5676,-4.5737,-4.5746,-4.5754,0,0,0,0,0,0,0,0,0,0,0,0,0,-4.5649,-4.5561,-4.5832,-4.5743,-4.5736,-4.589,-4.5891,-4.5892,-4.5699,-4.569,-4.5681,-4.5673,-4.5734,-4.5745,-4.5755,-4.5998,0,0,-4.5788,-4.5792,0,0,0,0,0,0,0,0,-4.5644,-4.566,-4.5755,-4.575,-4.5742,-4.5777,-4.5814,-4.5927,-4.5701,-4.5713,-4.5679,-4.5668,-4.5759,-4.5767,-4.5797,-4.6001,-4.6003,-4.5789,-4.5795,-4.58,-4.5803,0,0,0,0,0,0,0,-4.5638,-4.5656,-4.5855,-4.5757,-4.5749,-4.57,-4.5704,-4.5835,-4.5785,-4.5711,-4.5697,-4.5706,-4.5754,-4.5788,-4.5797,-4.6004,-4.5789,-4.5798,-4.5805,-4.5809,-4.6409,-4.6418,0,0,0,0,0,0,-4.5642,-4.5652,-4.5853,-4.5856,-4.567,-4.5713,-4.5717,-4.5774,-4.5783,-4.5776,-4.5714,-4.5697,-4.5774,-4.5785,-4.5799,-4.6084,-4.58,-4.581,-4.5816,-4.64,-4.6411,-4.6422,0,0,0,0,0,0,-4.5637,-4.5662,-4.5851,-4.575,-4.5771,-4.5727,-4.5793,-4.578,-4.5814,-4.5785,-4.5775,-4.5758,-4.5767,-4.5784,-4.595,-4.6084,-4.5815,-4.5824,-4.6388,-4.6403,-4.6417,-4.6658,0,0,0,0,0,0,-4.563,-4.5662,-4.5753,-4.5754,-4.5777,-4.6002,-4.5801,-4.5788,-4.5833,-4.5811,-4.5824,-4.5817,-4.5762,-4.5935,-4.596,-4.6094,-4.5833,-4.6376,-4.6395,-4.6412,-4.6638,-4.6678,-4.6713,0,0,0,0,0,-4.5621,-4.5819,-4.5759,-4.5785,-4.5891,-4.601,-4.6023,-4.5954,-4.5844,-4.5937,-4.5917,-4.5817,-4.6064,-4.5954,-4.5981,-4.6119,-4.6368,-4.639,-4.6411,-4.6621,-4.667,-4.6712,0,0,0,0,0,0,-4.5837,-4.5818,-4.5751,-4.5955,-4.5986,-4.5976,-4.6091,-4.6009,-4.6071,-4.6049,-4.5961,-4.5965,-4.6148,-4.6149,-4.6026,-4.6354,-4.6197,-4.6225,-4.6348,-4.6395,-4.6432,-4.6429,-4.5841,0,0,0,0,0,-4.5908,-4.6006,-4.5983,-4.6166,-4.6184,-4.6136,-4.6185,-4.6129,-4.6157,-4.6169,-4.6162,-4.6193,-4.6277,-4.6335,-4.6411,-4.6635,-4.6636,-4.6744,-4.6782,-4.6813,-4.6839,-4.6959,-4.7007,-4.6492,-4.6492,-4.6492,0,0,-4.6056,-4.6058,-4.6125,-4.621,-4.6226,-4.633,-4.6148,-4.6265,-4.6341,-4.6186,-4.6344,-4.634,-4.6368,-4.6565,-4.6651,-4.6572,-4.6981,-4.684,-4.6866,-4.6875,-4.6986,-4.7035,-4.7078,-4.6507,-4.6504,-4.6502,0,0,-4.6381,-4.6391,-4.6545,-4.6565,-4.6593,-4.6558,-4.6595,-4.6599,-4.659,-4.6745,-4.6632,-4.672,-4.6868,-4.6893,-4.6926,-4.7258,-4.7169,-4.7285,-4.7485,-4.7602,-4.7643,-4.7679,-4.78,-4.7844,-4.7311,-4.7311,-4.7312,0,-4.6563,-4.6714,-4.6634,-4.676,-4.6801,-4.6664,-4.6819,-4.6843,-4.6894,-4.6926,-4.6835,-4.7017,-4.7027,-4.7228,-4.7309,-4.7339,-4.738,-4.7285,-4.7643,-4.7678,-4.771,-4.7825,-4.787,-4.7325,-4.7324,-4.7322,-4.7321,0,-4.6937,-4.7044,-4.7165,-4.7218,-4.7271,-4.7412,-4.7353,-4.7417,-4.7356,-4.7332,-4.7492,-4.7498,-4.7574,-4.7616,-4.7558,-4.781,-4.776,-4.7658,-4.7499,-4.7775,-4.7881,-4.7924,-4.7346,-4.7341,-4.7337,-4.7333,0,0,-4.7403,-4.7408,-4.7454,-4.7477,-4.7496,-4.7577,-4.771,-4.7784,-4.7841,-4.788,-4.7991,-4.8118,-4.8024,-4.806,-4.8003,-4.8106,-4.8372,-4.7991,-4.7991,-4.8064,-4.8651,-4.873,-4.8782,-4.831,-4.8318,-4.8325,-4.865,0,-4.7724,-4.7953,-4.7884,-4.8114,-4.8213,-4.8083,-4.8199,-4.8224,-4.8204,-4.8284,-4.8261,-4.8354,-4.8221,-4.8243,-4.8338,-4.8319,-4.8489,-4.8294,-4.8415,-4.842,-4.8415,-4.8837,-4.8921,-4.9228,-4.869,-4.8697,-4.8702,0,-4.813,-4.8185,-4.8426,-4.8428,-4.8467,-4.8573,-4.8634,-4.8712,-4.8737,-4.8715,-4.8756,-4.8677,-4.8808,-4.8646,-4.8826,-4.8696,-4.874,-4.8738,-4.8748,-4.876,-4.8581,-4.8863,-4.9323,-4.9371,-4.8766,-4.8761,-4.8756,0,-4.8449,-4.8583,-4.8744,-4.8767,-4.8773,-4.8851,-4.8857,-4.8873,-4.8922,-4.8975,-4.9005,-4.9073,-4.9112,-4.9166,-4.9108,-4.8995,-4.9298,-4.913,-4.9285,-4.9287,-4.9358,-4.9355,-4.9835,-4.9381,-4.9381,-4.938,-4.9379,0,-4.8817,-4.897,-4.8887,-4.8988,-4.9155,-4.9073,-4.9241,-4.9232,-4.9248,-4.9344,-4.9234,-4.9327,-4.9242,-4.9327,-4.9282,-4.9439,-4.9456,-4.9443,-4.943,-4.9456,-4.9458,-4.9486,-4.9465,-4.9392,-4.9389,-4.9387,-4.9385,0,-4.9203,-4.9154,-4.9322,-4.9313,-4.9315,-4.9439,-4.9432,-4.9524,-4.9494,-4.9617,-4.9641,-4.9596,-4.9691,-4.9637,-4.9733,-4.9702,-4.9908,-4.9864,-4.99,-4.989,-5.0048,-5.0036,-5.0567,-5.0633,-5.0134,-5.0139,-5.0143,0,-4.9443,-4.9557,-4.9561,-4.9618,-4.9631,-4.9723,-4.9771,-4.9695,-4.975,-4.9787,-4.9875,-4.9959,-5.0023,-5.0179,-5.0156,-5.0229,-5.0188,-5.0368,-5.0198,-5.022,-5.0194,-5.0189,-5.0201,-5.0405,-5.041,-5.0415,-5.0419,0,-4.9875,-4.9844,-4.9918,-4.9985,-5.0046,-5.0094,-5.0133,-5.0185,-5.0109,-5.0176,-5.0271,-5.0321,-5.0419,-5.0505,-5.0567,-5.0572,-5.0485,-5.0472,-5.0512,-5.0541,-5.0559,-5.0554,-4.9997,-5.0461,-5.0457,-5.0454,-5.0452,-5.045,-5.0197,-5.0293,-5.0311,-5.0397,-5.0418,-5.0457,-5.0544,-5.0525,-5.0602,-5.0676,-5.0625,-5.0738,-5.0759,-5.0833,-5.085,-5.0937,-5.0865,-5.0922,-5.0938,-5.0954,-5.0977,-5.0542,-5.0948,-5.0947,-5.0945,-5.0944,-5.0943,0,-5.0625,-5.063,-5.071,-5.0768,-5.0836,-5.0745,-5.0783,-5.0846,-5.0947,-5.0973,-5.1038,-5.1147,-5.1229,-5.1211,-5.1286,-5.1359,-5.1321,-5.1381,-5.1377,-5.138,-5.1036,-5.0996,-5.1411,-5.1411,-5.1411,-5.1411,-5.1411,-5.1411,-5.0857,-5.1015,-5.0987,-5.1154,-5.1157,-5.1267,-5.1297,-5.1332,-5.1353,-5.148,-5.1548,-5.1534,-5.1543,-5.1617,-5.1689,-5.1681,-5.1715,-5.1792,-5.177,-5.145,-5.1404,-5.136,-5.1322,-5.1799,-5.18,-5.2107,-5.211,-5.2112]},{"header":{"parameterUnit":"m.s-1","parameterCategory":1,"la1":30.2991,"la2":30.254,"lo1":-89.0895,"lo2":-89.0444,"dy":0.0017,"dx":0.0017,"nx":28,"ny":28,"refTime":"2024-10-17T03:00:00:Z","depth":0,"parameterNumber":3,"parameterNumberName":"V-component_of_WINDS"},"data":[0,0,0,0,0,0,0,0,0,0,0,0,0,0,0,0,0,0,0,0,0,0,0,0,0,0,0,0,0,0,0,0,0,0,0,0,0,0,0,0,0,0,0,0,0,0,0,0,0,0,0,0,0,0,0,0,0,0,-5.3758,-5.3758,0,-5.3811,-5.3811,-5.3812,-5.3713,-5.3709,-5.3706,-5.3703,-5.3754,-5.3758,-5.3762,0,0,0,0,0,0,0,0,0,0,0,0,0,-5.3566,-5.3571,-5.3758,-5.3759,-5.3759,-5.3811,-5.3811,-5.3812,-5.3713,-5.3709,-5.3705,-5.3702,-5.3752,-5.3757,-5.3763,0,0,0,0,0,0,0,0,0,0,0,0,0,-5.3637,-5.3572,-5.3758,-5.3716,-5.3713,-5.381,-5.3811,-5.3812,-5.3714,-5.3709,-5.3704,-5.37,-5.3751,-5.3757,-5.3764,-5.3903,0,0,-5.3784,-5.3787,0,0,0,0,0,0,0,0,-5.3634,-5.3645,-5.3722,-5.3719,-5.3716,-5.375,-5.3762,-5.3842,-5.3715,-5.3714,-5.3703,-5.3697,-5.3756,-5.3762,-5.3783,-5.3905,-5.3907,-5.3784,-5.3788,-5.3791,-5.3793,0,0,0,0,0,0,0,-5.3629,-5.3642,-5.3778,-5.3723,-5.3719,-5.3693,-5.3698,-5.3777,-5.3762,-5.3713,-5.3706,-5.3714,-5.3754,-5.3777,-5.3783,-5.3908,-5.3784,-5.379,-5.3794,-5.3797,-5.4144,-5.4149,0,0,0,0,0,0,-5.363,-5.3638,-5.3777,-5.378,-5.3662,-5.3701,-5.3706,-5.3744,-5.3761,-5.3759,-5.3718,-5.3709,-5.3768,-5.3776,-5.3785,-5.3947,-5.3791,-5.3797,-5.3801,-5.4139,-5.4145,-5.4151,0,0,0,0,0,0,-5.3626,-5.3643,-5.3775,-5.3707,-5.3722,-5.3709,-5.3753,-5.3748,-5.377,-5.3764,-5.3761,-5.3745,-5.3764,-5.3775,-5.3874,-5.3947,-5.38,-5.3806,-5.4133,-5.4141,-5.4148,-5.4274,0,0,0,0,0,0,-5.3621,-5.3642,-5.3696,-5.3709,-5.3726,-5.3865,-5.3757,-5.3752,-5.3783,-5.3771,-5.3788,-5.3786,-5.3761,-5.3864,-5.388,-5.3954,-5.3811,-5.4126,-5.4136,-5.4146,-5.4263,-5.4285,-5.4304,0,0,0,0,0,-5.3614,-5.3729,-5.37,-5.3717,-5.3794,-5.3869,-5.3879,-5.3848,-5.3789,-5.3842,-5.3838,-5.3786,-5.3937,-5.3875,-5.3892,-5.3969,-5.4121,-5.4133,-5.4145,-5.4254,-5.4281,-5.4303,0,0,0,0,0,0,-5.3725,-5.373,-5.3697,-5.3821,-5.3845,-5.3853,-5.3919,-5.3878,-5.392,-5.3907,-5.3867,-5.3871,-5.3977,-5.3983,-5.3914,-5.4103,-5.4019,-5.4035,-5.4096,-5.4121,-5.4141,-5.4137,-5.3817,0,0,0,0,0,-5.3764,-5.3826,-5.3827,-5.3935,-5.3949,-5.3933,-5.3964,-5.3939,-5.3962,-5.3972,-5.3975,-5.3999,-5.4051,-5.4086,-5.4134,-5.4263,-5.4264,-5.4324,-5.4344,-5.4361,-5.4375,-5.4441,-5.4467,-5.419,-5.419,-5.419,0,0,-5.3844,-5.3855,-5.3897,-5.3958,-5.3974,-5.4037,-5.3942,-5.4014,-5.406,-5.3982,-5.4075,-5.4078,-5.4102,-5.4216,-5.4266,-5.4223,-5.4452,-5.4376,-5.439,-5.4394,-5.4456,-5.4482,-5.4506,-5.4198,-5.4196,-5.4195,0,0,-5.4023,-5.4039,-5.4129,-5.4147,-5.4173,-5.4161,-5.4183,-5.4196,-5.4195,-5.4288,-5.423,-5.4284,-5.4376,-5.4394,-5.4416,-5.46,-5.4553,-5.4617,-5.4723,-5.4788,-5.481,-5.4829,-5.4893,-5.4917,-5.4631,-5.4631,-5.4631,0,-5.4119,-5.4215,-5.4181,-5.4257,-5.4284,-5.4217,-5.4308,-5.4326,-5.4366,-5.4386,-5.4338,-5.4451,-5.4462,-5.4578,-5.4623,-5.4643,-5.4665,-5.4614,-5.481,-5.4829,-5.4846,-5.4906,-5.4931,-5.4639,-5.4638,-5.4637,-5.4636,0,-5.4331,-5.4397,-5.4467,-5.4508,-5.4543,-5.4626,-5.4603,-5.4643,-5.4614,-5.4606,-5.47,-5.4711,-5.4759,-5.4785,-5.4757,-5.4897,-5.4869,-5.4817,-5.4731,-5.4881,-5.4936,-5.496,-5.4649,-5.4647,-5.4644,-5.4643,0,0,-5.4581,-5.4601,-5.4628,-5.4644,-5.4667,-5.4717,-5.4796,-5.4844,-5.4877,-5.4907,-5.497,-5.5049,-5.5,-5.5024,-5.4998,-5.5055,-5.5198,-5.4994,-5.4994,-5.5031,-5.535,-5.5388,-5.5416,-5.5167,-5.5171,-5.5175,-5.5347,0,-5.4757,-5.4894,-5.4865,-5.4999,-5.5058,-5.4995,-5.5063,-5.5083,-5.5078,-5.5126,-5.5119,-5.5175,-5.5107,-5.5121,-5.5175,-5.5169,-5.5261,-5.5156,-5.5224,-5.5227,-5.5219,-5.5445,-5.5487,-5.5649,-5.5369,-5.5373,-5.5375,0,-5.4982,-5.502,-5.5159,-5.5171,-5.5195,-5.5257,-5.5297,-5.5345,-5.5366,-5.5357,-5.5384,-5.5346,-5.5422,-5.5336,-5.5439,-5.5368,-5.5394,-5.5395,-5.5401,-5.5405,-5.5309,-5.5454,-5.5701,-5.5725,-5.541,-5.5407,-5.5405,0,-5.5148,-5.5234,-5.5328,-5.5345,-5.5361,-5.5406,-5.5414,-5.543,-5.546,-5.5495,-5.5514,-5.5557,-5.558,-5.5614,-5.5588,-5.5528,-5.5694,-5.5606,-5.5687,-5.5688,-5.5725,-5.5722,-5.5977,-5.5744,-5.5743,-5.5743,-5.5742,0,-5.5347,-5.5435,-5.5403,-5.5461,-5.5556,-5.5521,-5.5616,-5.5617,-5.5632,-5.5687,-5.5635,-5.5687,-5.565,-5.5699,-5.5679,-5.5766,-5.5777,-5.5771,-5.5765,-5.5776,-5.5776,-5.5791,-5.5779,-5.5749,-5.5748,-5.5747,-5.5745,0,-5.5549,-5.5532,-5.563,-5.5637,-5.5641,-5.5711,-5.5715,-5.5768,-5.5758,-5.5829,-5.5843,-5.5827,-5.5882,-5.586,-5.5918,-5.5904,-5.6015,-5.5994,-5.6008,-5.6003,-5.6084,-5.6076,-5.6357,-5.6391,-5.6137,-5.6139,-5.6141,0,-5.5677,-5.5743,-5.5757,-5.579,-5.5803,-5.5858,-5.5888,-5.5856,-5.5889,-5.5917,-5.5966,-5.6016,-5.6055,-5.6145,-5.6138,-5.6181,-5.616,-5.6255,-5.6166,-5.6175,-5.616,-5.6156,-5.6161,-5.6273,-5.6276,-5.6278,-5.628,0,-5.5905,-5.5893,-5.5939,-5.5982,-5.602,-5.6052,-5.6079,-5.6109,-5.6078,-5.6117,-5.6173,-5.6203,-5.6262,-5.6312,-5.6351,-5.6357,-5.6314,-5.6309,-5.6329,-5.634,-5.6345,-5.6342,-5.6056,-5.6302,-5.63,-5.6298,-5.6297,-5.6296,-5.6072,-5.6127,-5.6145,-5.6198,-5.6215,-5.6241,-5.6291,-5.6287,-5.6333,-5.6379,-5.6357,-5.6421,-5.6438,-5.6485,-5.6498,-5.6546,-5.6509,-5.6539,-5.6547,-5.6555,-5.6565,-5.6339,-5.6553,-5.6553,-5.6552,-5.6551,-5.6551,0,-5.6296,-5.6304,-5.6353,-5.6393,-5.6434,-5.639,-5.6417,-5.6454,-5.6512,-5.6532,-5.6571,-5.6634,-5.6682,-5.6678,-5.6722,-5.6761,-5.6742,-5.6774,-5.677,-5.6772,-5.6596,-5.6573,-5.6788,-5.6788,-5.6788,-5.6788,-5.6788,-5.6788,-5.6417,-5.6507,-5.6497,-5.6593,-5.66,-5.6664,-5.6683,-5.6706,-5.6722,-5.6795,-5.6835,-5.6832,-5.6842,-5.6886,-5.6927,-5.6924,-5.6942,-5.6982,-5.6971,-5.6808,-5.6784,-5.6762,-5.674,-5.6986,-5.6986,-5.7142,-5.7144,-5.7145]}]]